TimePDT,TemperatureF,Dew PointF,Humidity,Sea Level PressureIn,VisibilityMPH,Wind Direction,Wind SpeedMPH,Gust SpeedMPH,PrecipitationIn,Events,Conditions,WindDirDegrees,DateUTC
12:00 AM,-23.8,-9999,N/A,30.14,9.0,West,11.5,-,N/A,,Unknown,260,2013-04-07 07:00:00
12:16 AM,-23.8,-9999,N/A,30.11,8.0,West,10.4,-,N/A,,Unknown,260,2013-04-07 07:16:00
12:56 AM,-23.8,-9999,N/A,30.10,9.0,West,12.7,-,N/A,,Unknown,260,2013-04-07 07:56:00
1:00 AM,-23.8,-9999,N/A,30.14,8.0,WSW,10.4,-,N/A,,Unknown,250,2013-04-07 08:00:00
2:00 AM,-24,,,30.13,9,WSW,11.5,,,,,240,2013-04-07 09:00:00
2:00 AM,-23.8,-9999,N/A,30.13,9.0,WSW,11.5,-,N/A,,Unknown,250,2013-04-07 09:00:00
4:00 AM,-23.8,-9999,N/A,30.13,7.0,West,15.0,-,N/A,,Unknown,270,2013-04-07 11:00:00
5:00 AM,-26,,,30.13,9,West,11.5,,,,,270,2013-04-07 12:00:00
6:00 AM,-27.4,-9999,N/A,30.12,9.0,West,10.4,-,N/A,,Unknown,260,2013-04-07 13:00:00
7:00 AM,-27.4,-9999,N/A,30.12,9.0,West,13.8,-,N/A,,Unknown,260,2013-04-07 14:00:00
8:00 AM,-29,,,30.12,9,West,11.5,,,,,260,2013-04-07 15:00:00
8:00 AM,-29.2,-9999,N/A,30.12,9.0,West,11.5,-,N/A,,Unknown,260,2013-04-07 15:00:00
9:00 AM,-27.4,-9999,N/A,30.12,9.0,West,10.4,-,N/A,,Unknown,260,2013-04-07 16:00:00
10:00 AM,-23.8,-9999,N/A,30.11,9.0,West,10.4,-,N/A,,Unknown,270,2013-04-07 17:00:00
11:00 AM,-22,,,30.11,9,West,11.5,,,,,270,2013-04-07 18:00:00
11:00 AM,-22.0,-9999,N/A,30.11,9.0,West,11.5,-,N/A,,Unknown,280,2013-04-07 18:00:00
12:00 PM,-20.2,-9999,N/A,30.12,9.0,West,12.7,-,N/A,,Unknown,280,2013-04-07 19:00:00
1:00 PM,-20.2,-9999,N/A,30.11,9.0,WNW,9.2,-,N/A,,Unknown,290,2013-04-07 20:00:00
2:00 PM,-18,,,30.12,9,NW,8.1,,,,,310,2013-04-07 21:00:00
2:00 PM,-18.4,-9999,N/A,30.12,9.0,NW,8.1,-,N/A,,Unknown,320,2013-04-07 21:00:00
3:00 PM,-16.6,-9999,N/A,30.11,9.0,NW,9.2,-,N/A,,Unknown,320,2013-04-07 22:00:00
4:00 PM,-16.6,-9999,N/A,30.10,9.0,WNW,8.1,-,N/A,,Unknown,290,2013-04-07 23:00:00
5:00 PM,-15,,,30.09,9,NW,6.9,,,,,310,2013-04-08 00:00:00
5:00 PM,-14.8,-9999,N/A,30.09,9.0,WNW,6.9,-,N/A,,Unknown,300,2013-04-08 00:00:00
6:00 PM,-14.8,-9999,N/A,30.09,9.0,WNW,5.8,-,N/A,,Unknown,300,2013-04-08 01:00:00
7:00 PM,-14.8,-9999,N/A,30.06,9.0,NNW,4.6,-,N/A,,Unknown,330,2013-04-08 02:00:00
7:54 PM,-14.8,-9999,N/A,30.02,3.0,NW,8.1,-,N/A,,Unknown,320,2013-04-08 02:54:00
7:59 PM,-14.8,-9999,N/A,30.03,3.0,NW,8.1,-,N/A,,Unknown,310,2013-04-08 02:59:00
8:00 PM,-15,,,30.06,3,NW,8.1,,,,,310,2013-04-08 03:00:00
8:00 PM,-14.8,-9999,N/A,30.06,3.0,NW,8.1,-,N/A,,Unknown,310,2013-04-08 03:00:00
9:00 PM,-14.8,-9999,N/A,30.05,9.0,NW,8.1,-,N/A,,Unknown,320,2013-04-08 04:00:00
9:47 PM,-13.0,-9999,N/A,30.02,6.0,NW,9.2,-,N/A,Snow,Light Snow,320,2013-04-08 04:47:00
9:53 PM,-13.0,-9999,N/A,30.01,3.0,NW,9.2,-,N/A,Snow,Light Snow,320,2013-04-08 04:53:00
10:00 PM,-13.0,-9999,N/A,30.04,1.5,NW,10.4,-,N/A,Snow,Light Snow,320,2013-04-08 05:00:00
10:01 PM,-13.0,-9999,N/A,30.01,1.4,NW,10.4,-,N/A,Snow,Light Snow,320,2013-04-08 05:01:00
10:15 PM,-13.0,-9999,N/A,30.00,1.6,NW,10.4,-,N/A,Snow,Light Snow,320,2013-04-08 05:15:00
10:47 PM,-13.0,-9999,N/A,30.00,1.4,NW,10.4,-,N/A,Snow,Light Snow,320,2013-04-08 05:47:00
10:51 PM,-13.0,-9999,N/A,30.00,1.0,NW,10.4,-,N/A,Snow,Light Snow,310,2013-04-08 05:51:00
11:00 PM,-13,,,30.03,1,NW,10.4,,,,,320,2013-04-08 06:00:00
11:00 PM,-13.0,-9999,N/A,30.03,0.8,NW,10.4,-,N/A,Snow,Light Snow,320,2013-04-08 06:00:00
11:22 PM,-13.0,-9999,N/A,30.00,1.1,NW,10.4,-,N/A,Snow,Light Snow,320,2013-04-08 06:22:00
11:40 PM,-13.0,-9999,N/A,30.00,1.5,NW,12.7,-,N/A,Snow,Light Snow,320,2013-04-08 06:40:00